This is the latest recevied weather packets stored in our database for station/object KD7CTY. If no packets are shown the sender has not sent any weather packets the latest 10 day(s).
| Time | Temp. | Humidity | Pressure | Rain* | Wind** | Luminosity | Snow |
|---|---|---|---|---|---|---|---|
| 1777890528 | 13.89° C | 70% | 1008.6 hPa | 0 mm | - | 0 W/m² | - |
| 1777890223 | 13.89° C | 69% | 1008.7 hPa | 0 mm | - | 0 W/m² | - |
| 1777889920 | 13.89° C | 69% | 1008.7 hPa | 0 mm | - | 0 W/m² | - |
| 1777889618 | 13.89° C | 70% | 1008.5 hPa | 0 mm | - | 0 W/m² | - |
| 1777889315 | 13.89° C | 68% | 1008.6 hPa | 0 mm | - | 0 W/m² | - |
| 1777889012 | 13.89° C | 67% | 1008.6 hPa | 0 mm | - | 0 W/m² | - |
| 1777888710 | 13.89° C | 70% | 1008.8 hPa | 0 mm | - | 0 W/m² | - |
| 1777888405 | 13.89° C | 70% | 1008.7 hPa | 0 mm | - | 0 W/m² | - |
| 1777888102 | 13.33° C | 69% | 1008.5 hPa | 0 mm | - | 0 W/m² | - |
| 1777887800 | 13.89° C | 69% | 1008.5 hPa | 0 mm | - | 0 W/m² | - |
| 1777887496 | 13.89° C | 70% | 1008.5 hPa | 0 mm | - | 0 W/m² | - |
| 1777887192 | 13.89° C | 69% | 1008.6 hPa | 0 mm | - | 0 W/m² | - |
| 1777886888 | 13.89° C | 68% | 1008.6 hPa | 0 mm | - | 0 W/m² | - |
| 1777886583 | 13.89° C | 67% | 1008.7 hPa | 0 mm | - | 0 W/m² | - |
| 1777886281 | 13.89° C | 67% | 1008.5 hPa | 0 mm | - | 0 W/m² | - |
| 1777885979 | 13.89° C | 66% | 1008.5 hPa | 0 mm | - | 0 W/m² | - |
| 1777885678 | 13.89° C | 67% | 1008.8 hPa | 0 mm | - | 0 W/m² | - |
| 1777885375 | 14.44° C | 65% | 1008.6 hPa | 0 mm | - | 0 W/m² | - |
| 1777885074 | 13.89° C | 67% | 1008.5 hPa | 0 mm | - | 0 W/m² | - |
| 1777884770 | 13.89° C | 67% | 1008.4 hPa | 0 mm | - | 0 W/m² | - |
| 1777884465 | 13.89° C | 67% | 1008.5 hPa | 0 mm | - | 0 W/m² | - |
| 1777884164 | 14.44° C | 64% | 1008.6 hPa | 0 mm | - | 0 W/m² | - |
| 1777883860 | 14.44° C | 64% | 1008.6 hPa | 0 mm | - | 0 W/m² | - |
| 1777883557 | 13.89° C | 68% | 1008.6 hPa | 0 mm | - | 0 W/m² | - |
| 1777883253 | 13.89° C | 70% | 1008.5 hPa | 0 mm | - | 0 W/m² | - |
* Rain latest hour (hover to see other rain measurements)
** Current wind speed in m/s (hover to see current wind gust speed)